Weather History for Hobbs, NM

Change the Weather History Date:

Sunday, March 31, 2013

  Actual Average Record
Temperature  
Mean Temperature 63 °F -  
Max Temperature 73 °F 69 °F 89 °F (2012)
Min Temperature 53 °F 42 °F 30 °F (1949)
Degree Days  
Heating Degree Days 2    
Growing Degree Days 13 (Base 50)    
Moisture  
Dew Point 32 °F    
Average Humidity 34    
Maximum Humidity 67    
Minimum Humidity 18    
Precipitation  
Precipitation 0.00 in - - ()
Sea Level Pressure  
Sea Level Pressure 30.02 in    
Wind  
Wind Speed 6 mph (NW)    
Max Wind Speed 26 mph    
Max Gust Speed 36 mph    
Visibility 10 miles    
Events      
Averages and records for this station are not official NWS values.
T = Trace of Precipitation, MM = Missing Value Source: NWS Daily Summary

Daily Weather History Graph

Daily Weather History Graph

Search for Another Location

Airport:

Trip Planner

Search our weather history database for the weather conditions in past years. The results will help you decide how hot, cold, wet, or windy it might be!

Date:

Astronomy

Mar. 31, 2013 Rise Set
Actual Time 6:41 AM MDT 7:12 PM MDT
Civil Twilight 6:17 AM MDT 7:37 PM MDT
Nautical Twilight 5:48 AM MDT 8:06 PM MDT
Astronomical Twilight 5:18 AM MDT 8:36 PM MDT
Moon No Moon Rise 9:45 AM MDT (3/31)
Length of Visible Light 13h 20m
Length of Day
12h 30m
Waning Gibbous, 77% of the Moon is Illuminated
Mar 31
Waning Gibbous
Apr 2
Last Quarter
Apr 10
New
Apr 18
First Quarter
Apr 25
Full

Hourly Weather History & Observations

Time (MDT) Temp. Dew Point Humidity Pressure Visibility Wind Dir Wind Speed Gust Speed Precip Events Conditions
12:15 AM 66.2 °F 23.0 °F 19% 29.98 in 10.0 mi Calm Calm - N/A   Clear
12:35 AM 66.2 °F 23.0 °F 19% 29.99 in 10.0 mi SW 6.9 mph - N/A   Clear
12:55 AM 68.0 °F 23.0 °F 18% 29.99 in 10.0 mi WSW 11.5 mph - N/A   Clear
1:15 AM 68.0 °F 23.0 °F 18% 29.98 in 10.0 mi Calm Calm - N/A   Clear
1:35 AM 68.0 °F 23.0 °F 18% 29.99 in 10.0 mi WSW 6.9 mph - N/A   Clear
1:55 AM 68.0 °F 23.0 °F 18% 29.98 in 10.0 mi WSW 5.8 mph - N/A   Clear
2:15 AM 66.2 °F 23.0 °F 19% 29.98 in 10.0 mi West 8.1 mph - N/A   Clear
2:35 AM 66.2 °F 23.0 °F 19% 29.97 in 10.0 mi West 3.5 mph - N/A   Clear
2:55 AM 64.4 °F 24.8 °F 22% 29.97 in 10.0 mi Calm Calm - N/A   Clear
3:15 AM 64.4 °F 23.0 °F 21% 29.96 in 10.0 mi Calm Calm - N/A   Clear
3:35 AM 64.4 °F 23.0 °F 21% 29.96 in 10.0 mi Calm Calm - N/A   Clear
3:55 AM 62.6 °F 23.0 °F 22% 29.97 in 10.0 mi Calm Calm - N/A   Partly Cloudy
4:15 AM 64.4 °F 23.0 °F 21% 29.96 in 10.0 mi West 9.2 mph - N/A   Clear
4:35 AM 64.4 °F 23.0 °F 21% 29.96 in 10.0 mi WNW 17.3 mph - N/A   Clear
4:55 AM 66.2 °F 24.8 °F 21% 29.96 in 10.0 mi WNW 11.5 mph - N/A   Clear
5:50 AM 64.4 °F 24.8 °F 22% 29.99 in 10.0 mi North 13.8 mph - N/A   Scattered Clouds
6:31 AM 57.2 °F 32.0 °F 38% 30.02 in 4.0 mi North 25.3 mph 31.1 mph N/A   Widespread Dust
6:50 AM 55.4 °F 35.6 °F 47% 30.04 in 3.0 mi NNW 26.5 mph 35.7 mph N/A   Widespread Dust
7:50 AM 53.6 °F 42.8 °F 67% 30.09 in 6.0 mi North 24.2 mph 33.4 mph N/A   Widespread Dust
8:50 AM 55.4 °F 41.0 °F 58% 30.11 in 10.0 mi NNE 25.3 mph 31.1 mph N/A   Clear
9:50 AM 59.0 °F 41.0 °F 51% 30.12 in 10.0 mi NE 24.2 mph 29.9 mph N/A   Clear
11:50 AM 64.4 °F 41.0 °F 42% 30.15 in 10.0 mi NNE 13.8 mph 23.0 mph N/A   Clear
12:50 PM 68.0 °F 41.0 °F 37% 30.13 in 10.0 mi NE 13.8 mph 20.7 mph N/A   Clear
1:50 PM 69.8 °F 39.2 °F 33% 30.09 in 10.0 mi NNE 9.2 mph - N/A   Clear
2:50 PM 71.6 °F 39.2 °F 31% 30.06 in 10.0 mi Calm Calm - N/A   Clear
4:50 PM 71.6 °F 39.2 °F 31% 30.02 in 10.0 mi Calm Calm - N/A   Clear
5:50 PM 73.4 °F 39.2 °F 29% 30.01 in 10.0 mi Calm Calm - N/A   Clear
6:15 PM 71.6 °F 37.4 °F 29% 30.02 in 10.0 mi Calm Calm - N/A   Clear
6:35 PM 69.8 °F 37.4 °F 31% 30.02 in 10.0 mi Calm Calm - N/A   Clear
6:55 PM 68.0 °F 37.4 °F 33% 30.02 in 10.0 mi Calm Calm - N/A   Clear
7:15 PM 66.2 °F 37.4 °F 35% 30.03 in 10.0 mi Calm Calm - N/A   Clear
7:35 PM 64.4 °F 37.4 °F 37% 30.03 in 10.0 mi Calm Calm - N/A   Clear
7:55 PM 62.6 °F 37.4 °F 39% 30.03 in 10.0 mi Calm Calm - N/A   Clear
8:15 PM 62.6 °F 37.4 °F 39% 30.04 in 10.0 mi Calm Calm - N/A   Clear
8:35 PM 59.0 °F 37.4 °F 45% 30.04 in 10.0 mi Calm Calm - N/A   Clear
8:55 PM 59.0 °F 35.6 °F 42% 30.04 in 10.0 mi Calm Calm - N/A   Clear
9:15 PM 57.2 °F 35.6 °F 44% 30.04 in 10.0 mi Calm Calm - N/A   Clear
9:35 PM 57.2 °F 35.6 °F 44% 30.05 in 10.0 mi Calm Calm - N/A   Clear
10:15 PM 55.4 °F 35.6 °F 47% 30.05 in 10.0 mi Calm Calm - N/A   Clear
10:35 PM 55.4 °F 35.6 °F 47% 30.05 in 10.0 mi Calm Calm - N/A   Clear
11:15 PM 55.4 °F 37.4 °F 51% 30.05 in 10.0 mi Calm Calm - N/A   Clear
11:35 PM 55.4 °F 37.4 °F 51% 30.05 in 10.0 mi SE 6.9 mph - N/A   Clear
11:55 PM 55.4 °F 39.2 °F 54% 30.05 in 10.0 mi ESE 8.1 mph - N/A   Clear